アトラス彗星

C/2024 L5 ( ATLAS )

English version
Home page
Updated on May 27, 2025

---------------------------------------------------------------------

・ プロフィール

発見日 2024年6月14日
発見光度 17.6等
発見者 Asteroid Terrestrial-Impact Last Alert System (ATLAS) search program

・ 写真集

・ 軌道要素

Epoch 2025 May 5.0 TT = JDT 2460800.5
T 2025 Mar. 10.39618 TT                                 Payne
q   3.4324132            (2000.0)            P               Q
z  -0.0108344      Peri.  290.51457     -0.86072801     -0.48590572
 +/-0.0000014      Node   139.17671     -0.33578279     +0.76603723
e   1.0371882      Incl.  166.57308     -0.38261888     +0.42081182
From 726 observations 2024 June 14-2025 Apr. 30, mean residual 0".6.

・ 星図

・ 光度変化

        m1 = 2.3 + 5 logΔ + 20.0 log r

---------------------------------------------------------------------

軌道要素はM.P.E.C. 2025-J08に掲載されたものです。
星図はステラナビゲータ Ver.11 (アストロアーツ) で作成したものです。
光度グラフはComet for Windowsで作成したものです。

---------------------------------------------------------------------

Copyright(C) Seiichi Yoshida (comet@aerith.net). All rights reserved.